Theta_e
345 345 345 345 345 346 345 345 347 348 350 350 350 349 349 349 350 351 352 351 351 353 353 353 349 348 348 348 348 348 348 347 346 347 349 349 350 357 361 360 360 359 359 359 359 358 358 358 357 357 357 357 357 356 355 355 355 355 356 356 356 357 357 358 358 357 358 357 358 359 358 358 358 357 357 357 357 357 357 357 357 356 355 355 355
345 344 345 344 345 345 347 346 347 349 351 349 352 350 350 350 351 351 350 350 352 352 356 355 350 348 346 347 348 350 349 348 347 348 348 350 351 356 362 361 361 360 359 359 359 359 359 359 359 358 358 357 357 356 355 356 356 357 357 357 357 357 357 358 358 358 358 358 359 359 358 358 358 357 357 358 358 357 356 356 356 356 356 355 355
345 344 345 345 345 344 344 346 348 349 350 350 352 352 350 349 350 351 349 349 351 351 353 352 346 347 348 347 348 350 349 350 349 348 350 349 351 351 358 362 361 361 360 360 360 359 360 359 359 359 358 357 358 358 358 358 358 358 359 358 359 359 359 358 358 358 358 359 359 358 358 358 358 358 358 358 358 357 357 357 357 356 356 355 354
346 344 344 345 345 346 345 347 349 349 351 351 351 353 351 352 355 355 354 352 353 353 352 351 345 345 346 346 348 349 349 349 350 351 350 348 348 351 352 357 363 362 361 361 361 361 360 360 360 359 359 358 359 357 357 357 358 358 358 359 359 359 359 359 359 359 358 359 358 358 358 358 357 357 357 357 357 357 357 356 357 356 356 355 355
346 348 350 344 348 345 345 351 349 349 351 355 355 351 351 351 351 356 352 352 350 350 354 349 344 343 345 347 348 348 349 349 349 350 351 351 349 349 351 354 353 361 362 362 362 362 361 361 361 361 360 360 359 359 359 360 359 359 359 359 359 359 359 359 358 358 359 359 359 358 358 358 357 357 357 357 357 357 357 357 357 356 356 355 355
348 348 346 346 346 345 345 346 348 351 354 355 350 350 350 351 353 350 358 351 348 349 351 349 343 343 344 346 346 347 348 348 348 349 350 350 350 349 351 350 351 352 355 361 362 363 363 363 363 362 362 361 361 361 361 361 361 361 360 360 360 360 361 360 360 360 360 360 360 359 359 359 359 358 358 358 357 357 358 358 357 357 357 357 356
350 348 348 346 346 346 347 347 350 355 354 353 351 350 350 351 355 350 347 346 349 350 350 346 344 342 342 345 345 346 347 347 348 349 349 349 350 351 351 351 352 352 354 352 361 361 363 364 364 363 363 363 363 363 363 363 362 362 362 362 361 362 362 361 361 361 361 361 361 361 361 360 361 361 360 360 359 359 360 359 359 359 358 359 358
352 350 347 346 347 348 348 349 353 354 354 356 353 351 350 351 352 348 343 344 349 346 347 347 346 343 342 342 343 349 345 346 346 348 349 349 350 350 350 351 351 352 357 353 352 355 361 363 364 364 364 364 364 364 364 364 364 364 364 363 363 363 362 363 362 362 362 362 362 362 362 362 362 362 361 361 361 362 362 361 361 360 359 358 359
355 351 348 347 348 349 350 352 357 354 352 352 351 353 350 353 347 353 348 344 345 346 346 346 345 345 344 342 341 347 344 344 345 346 350 348 348 349 349 350 352 360 355 354 353 352 356 360 363 364 365 365 365 365 365 366 366 365 365 365 365 365 364 364 364 364 364 364 364 364 364 363 363 363 363 363 362 363 363 362 360 360 360 360 359
357 353 350 351 351 352 353 354 355 354 351 350 350 351 350 348 347 349 352 346 345 346 346 347 349 346 345 344 343 347 344 343 344 354 347 347 347 348 349 350 350 351 353 354 353 352 351 354 358 361 364 365 366 366 366 366 366 366 366 366 366 365 365 365 365 365 365 365 365 365 364 364 364 363 363 363 364 364 364 363 362 361 361 360 360
356 356 353 356 352 352 353 356 356 354 352 350 349 355 354 351 349 348 352 351 349 348 348 349 352 349 344 345 346 348 346 342 347 348 347 347 348 351 350 350 350 350 351 352 353 352 350 349 348 348 350 358 362 365 367 368 367 368 368 368 367 367 367 366 366 366 366 366 365 365 365 365 365 364 364 365 364 364 364 363 363 362 362 361 360
356 356 357 354 352 352 354 355 355 351 350 349 347 348 349 349 349 352 351 354 355 355 351 348 346 342 349 349 346 346 347 351 347 347 348 346 347 351 350 350 350 350 351 352 353 353 351 350 355 350 350 353 358 360 363 365 367 368 369 369 370 368 367 368 367 367 367 367 367 367 366 366 366 365 365 364 364 364 364 363 361 362 362 362 361
358 356 356 360 354 352 353 353 354 353 350 349 347 348 351 351 353 355 356 349 346 349 349 347 339 339 339 339 341 344 352 355 350 348 349 346 345 347 349 350 349 349 351 352 353 353 353 352 351 351 351 349 350 355 358 360 363 366 367 368 368 369 370 369 368 368 368 368 368 367 366 365 365 364 364 364 364 363 363 363 363 362 362 362 362
359 357 357 354 352 351 351 352 352 352 353 353 351 361 354 353 354 349 349 349 344 350 351 344 338 334 334 333 335 338 343 349 347 347 345 345 346 345 346 347 347 347 348 350 352 353 354 353 353 353 352 350 349 348 348 350 352 356 359 363 366 369 370 371 371 370 370 370 369 367 366 364 364 364 364 364 363 363 363 362 361 361 360 360 357
359 360 355 353 352 351 352 351 352 356 349 347 348 350 353 354 353 349 347 348 352 354 350 343 338 340 338 334 327 329 337 334 339 344 345 344 343 344 345 346 347 346 346 347 348 350 353 354 353 353 352 351 350 349 349 354 355 361 363 362 362 364 365 367 369 370 370 369 368 365 364 364 364 364 364 364 363 363 362 360 360 359 356 354 352
359 359 356 354 352 352 352 351 352 354 349 349 349 349 350 352 352 355 349 343 344 345 355 346 342 339 331 330 329 329 324 326 330 335 340 343 343 342 344 343 343 344 346 344 345 347 349 351 353 353 353 353 352 351 351 351 357 364 366 367 367 366 367 369 370 370 369 366 366 365 364 364 364 364 364 363 363 362 360 359 358 357 352 350 350
359 358 358 354 352 352 352 350 351 353 354 350 349 351 352 353 351 352 349 345 343 341 343 348 344 343 340 332 328 325 324 327 330 329 335 339 340 342 343 343 341 341 344 343 343 344 346 348 350 352 353 353 353 353 353 354 355 360 363 367 370 370 370 369 369 367 365 364 364 365 365 365 364 363 364 363 363 360 359 357 356 355 353 349 348
358 358 358 357 353 353 352 352 352 355 355 353 352 353 352 354 353 351 349 348 346 345 340 346 348 352 346 338 336 332 329 331 329 323 329 342 340 340 338 340 340 341 341 341 340 340 346 346 348 349 351 352 352 352 351 351 358 356 356 358 372 372 369 363 365 362 363 364 365 365 365 365 363 364 362 362 361 359 357 356 354 353 352 351 349
360 358 358 357 354 353 353 353 354 353 359 355 354 353 353 354 356 352 351 354 350 345 342 340 340 344 352 349 348 347 337 335 328 328 321 325 330 334 331 334 336 337 339 340 340 338 339 344 347 347 346 348 348 348 347 349 360 370 371 375 368 371 368 363 362 362 364 365 365 364 364 365 364 362 361 360 359 357 355 354 352 351 347 348 345
359 357 358 358 356 354 353 354 354 354 358 357 355 355 355 355 357 355 353 355 350 344 342 343 341 341 350 348 348 349 340 340 333 332 328 324 327 333 332 331 334 335 338 339 339 339 339 339 343 344 344 344 345 347 347 350 354 356 360 365 367 369 367 362 361 363 364 364 364 364 365 364 363 362 360 359 357 355 353 351 351 349 346 346 345
358 358 357 358 361 356 354 353 354 355 360 359 356 356 355 353 351 351 349 351 352 349 346 343 342 344 341 339 338 340 340 339 340 338 332 325 325 328 328 332 331 330 333 335 336 338 340 340 341 346 348 349 347 348 352 355 353 352 361 363 366 368 363 360 360 364 362 362 364 365 364 364 362 361 359 358 355 354 351 350 348 347 346 347 345
356 357 357 359 360 359 356 356 356 357 360 358 356 355 354 352 352 351 350 348 353 351 352 349 348 347 343 342 336 337 336 334 334 335 332 330 328 329 330 330 325 326 333 332 333 335 336 339 342 345 346 346 346 349 354 354 353 354 353 361 367 368 362 360 359 362 360 360 362 364 364 363 361 359 357 356 353 351 350 348 345 346 346 346 345
355 357 358 359 359 360 358 357 357 361 361 358 357 357 356 355 355 354 353 350 348 350 353 352 348 346 344 341 339 340 338 336 336 336 333 329 327 325 327 334 325 325 327 334 344 336 334 337 339 341 343 344 346 352 355 354 360 359 359 360 361 364 362 363 360 359 353 357 361 362 363 362 361 358 356 354 351 350 349 345 345 345 346 344 344
354 355 356 359 359 358 360 359 359 355 356 358 357 356 355 356 355 352 351 352 350 352 348 347 348 347 346 344 342 344 342 339 340 338 335 331 329 327 328 333 332 329 331 334 333 333 335 334 337 340 341 343 348 354 355 356 356 363 360 360 360 362 363 365 364 357 356 354 350 353 358 355 356 355 354 352 351 351 349 344 344 344 344 343 343
352 354 355 358 359 357 357 358 357 358 356 355 355 355 354 355 353 353 352 351 350 350 349 349 349 347 348 349 347 345 344 342 341 340 336 334 331 328 330 336 334 334 336 330 327 332 338 338 337 339 342 346 352 355 355 355 353 358 363 359 359 361 361 363 364 358 355 354 356 359 360 359 355 354 353 353 352 351 349 343 342 343 342 342 343
353 353 356 358 359 359 359 359 358 357 357 356 355 356 356 355 353 352 352 352 351 352 351 352 349 350 349 347 347 348 345 346 345 344 338 336 332 331 331 329 336 336 336 337 335 333 337 340 345 347 350 351 352 354 355 356 354 358 363 357 353 355 359 360 363 359 357 354 354 358 359 358 356 355 353 353 351 349 348 343 342 343 340 342 341
353 355 358 358 359 358 358 358 358 356 356 357 361 359 361 358 357 353 352 352 350 352 351 352 353 350 348 347 350 349 347 346 347 345 341 339 338 335 333 330 327 327 334 333 336 332 331 334 344 350 348 355 353 354 355 356 359 359 361 357 352 355 354 357 359 360 358 355 355 357 356 357 356 355 354 352 351 348 346 343 341 341 339 340 339
353 355 356 358 358 358 358 358 358 357 357 357 358 360 359 356 354 354 353 360 353 352 351 352 352 351 350 350 348 348 347 346 348 346 348 348 345 339 335 329 328 328 329 330 331 335 341 340 343 348 351 352 354 354 361 364 360 359 363 356 352 352 354 354 355 356 355 353 354 356 356 356 355 354 353 352 350 346 344 341 340 340 338 338 338
354 356 355 356 357 357 357 357 357 357 357 358 360 359 358 358 357 354 353 353 355 352 352 351 350 353 352 353 351 349 349 349 346 346 346 350 346 342 340 337 330 330 329 327 327 332 339 345 342 344 352 355 356 358 356 355 358 357 356 357 354 353 352 349 351 351 352 351 352 354 354 355 355 354 353 352 349 343 341 339 339 339 337 336 336
355 357 356 355 355 361 356 356 357 357 358 359 360 360 358 356 357 356 356 354 354 355 355 353 352 351 355 353 352 351 351 346 345 347 348 347 346 346 345 341 338 334 331 329 328 332 337 342 346 346 348 349 352 354 356 356 359 359 354 354 355 355 349 348 349 349 350 350 350 350 353 354 353 352 349 346 342 340 338 339 337 338 335 334 335
356 355 354 354 354 355 356 356 356 357 358 358 359 358 357 356 355 355 354 354 353 352 353 354 354 354 351 352 350 351 351 348 350 351 350 351 348 347 349 345 344 338 336 330 329 332 342 340 342 347 348 347 351 352 353 354 359 359 354 352 355 355 352 353 349 348 348 347 346 346 346 347 347 345 344 342 339 339 340 339 335 336 334 332 332
355 355 355 354 354 354 356 356 357 357 357 358 359 357 357 357 356 356 354 353 353 352 354 355 359 356 353 351 351 351 351 350 348 349 348 349 352 348 346 344 344 342 340 332 333 335 340 343 344 346 349 349 351 350 349 354 357 358 353 353 356 359 358 356 353 348 346 345 344 343 341 340 340 341 342 341 340 342 341 339 338 334 332 330 329
355 353 353 354 354 354 355 355 356 357 356 357 357 357 356 356 355 354 353 353 352 353 354 355 356 356 354 352 352 353 351 350 348 348 349 348 348 348 347 343 343 343 341 338 334 336 337 340 344 346 350 352 350 349 351 352 354 355 357 355 356 356 358 357 355 350 346 343 341 340 339 338 337 338 339 339 339 341 343 340 338 334 331 328 326
354 353 351 353 354 355 355 354 354 356 357 356 357 356 355 354 355 358 356 354 353 353 351 352 354 356 353 351 352 353 352 351 350 348 348 349 348 346 346 347 344 344 345 340 336 335 336 337 340 343 346 351 347 348 350 351 352 356 355 354 357 357 359 358 355 354 349 344 340 338 337 336 336 336 337 338 339 340 340 339 337 331 330 326 324
353 353 351 351 353 354 355 354 353 354 355 356 356 356 355 355 355 356 357 355 354 354 353 353 354 353 351 351 352 352 354 351 351 351 350 348 348 346 345 345 344 344 344 343 340 336 337 339 339 340 344 347 348 348 349 352 355 354 352 353 354 357 360 359 357 356 350 344 341 338 336 335 335 335 334 335 337 337 337 335 332 329 326 322 321
351 351 351 350 350 352 353 354 353 353 353 354 354 355 355 355 354 354 354 354 354 354 354 354 354 354 353 351 352 352 351 350 350 350 349 348 347 346 345 345 344 346 345 345 344 342 338 338 339 341 343 343 346 349 352 355 355 355 353 354 352 353 355 358 358 357 353 345 342 339 337 335 334 333 332 332 333 332 331 329 327 326 323 322 322
350 350 349 349 348 349 351 352 352 351 351 352 352 352 353 354 354 355 354 353 353 353 353 354 359 354 353 353 353 351 348 349 349 348 350 348 350 347 347 346 346 346 347 345 344 344 341 340 340 341 343 345 348 350 352 352 353 351 349 349 352 353 354 356 359 360 351 345 342 340 337 335 334 333 331 331 330 330 329 327 326 325 323 322 322
348 349 348 348 349 348 349 350 351 351 350 350 351 351 351 352 352 353 353 353 353 352 351 352 353 354 354 353 353 352 350 349 349 349 347 348 349 349 348 348 347 346 345 344 344 343 342 342 341 340 340 345 344 346 348 350 350 349 349 351 352 351 350 351 354 360 360 355 350 346 339 336 335 332 331 331 330 329 328 327 326 325 322 320 318
348 347 348 347 349 349 349 349 349 350 350 349 349 349 349 349 350 351 351 351 351 351 351 350 351 351 353 353 353 352 351 350 349 349 348 347 349 348 349 348 348 345 345 344 343 342 342 342 341 342 342 343 345 344 346 348 347 348 348 349 349 347 346 346 350 353 353 350 346 344 344 342 339 336 329 327 327 327 328 327 326 324 322 318 316
347 347 347 347 347 348 349 349 350 350 349 349 348 348 349 349 349 349 350 350 350 350 350 350 350 350 350 351 351 352 351 351 350 349 348 348 347 347 348 348 347 345 345 344 342 342 341 340 340 341 338 338 339 345 347 345 346 344 347 349 346 347 347 343 347 349 350 344 347 346 341 338 336 334 328 328 329 329 329 328 329 329 326 322 319
348 347 347 346 346 346 347 348 349 350 349 349 349 348 348 348 348 347 348 349 349 349 349 349 349 349 349 350 350 350 353 360 358 357 355 356 349 346 347 346 346 345 345 344 343 341 340 339 340 340 338 341 342 343 343 342 341 343 340 343 344 345 344 345 347 349 352 350 346 344 343 340 338 336 335 334 335 334 331 331 331 332 330 324 321
345 346 345 345 345 345 344 344 346 348 349 349 352 345 347 350 347 348 347 348 348 349 348 348 348 348 348 348 351 359 361 360 355 353 349 355 360 354 348 345 345 345 344 343 342 341 341 339 339 339 338 339 340 341 341 342 344 341 341 340 339 343 340 342 343 344 348 346 343 343 345 341 338 337 334 334 337 338 336 332 330 330 329 326 323
346 346 346 343 343 343 344 344 343 344 346 348 344 336 335 339 349 347 346 345 345 346 347 347 346 347 347 347 346 352 360 365 359 352 347 345 350 356 359 361 360 347 343 342 342 342 340 340 340 340 339 339 340 341 341 342 342 343 342 341 342 340 339 336 337 343 344 347 340 336 342 339 338 337 338 336 337 335 333 333 334 332 327 325 323
348 350 346 344 342 341 342 343 344 344 345 345 335 333 333 333 341 349 347 346 345 344 344 344 345 345 345 345 346 347 347 348 348 350 352 350 344 345 346 350 351 357 358 350 345 342 340 340 340 341 340 340 341 342 342 341 343 342 343 342 342 341 340 337 334 337 341 349 343 337 343 339 335 337 337 340 339 337 336 332 331 330 328 325 324
351 348 346 346 344 343 342 339 341 344 345 340 333 331 331 331 331 340 347 347 345 345 344 344 344 344 344 344 344 345 346 355 356 350 346 346 345 343 342 343 346 345 339 339 347 352 347 342 341 341 341 342 341 343 345 343 342 342 340 339 339 339 340 338 340 337 343 350 345 341 342 342 335 340 338 341 341 340 340 334 332 331 328 326 324
348 348 348 346 345 343 344 343 342 341 342 343 331 328 328 328 328 332 343 346 346 346 345 345 345 344 344 343 343 344 344 345 346 346 345 345 344 343 343 342 342 347 347 341 338 339 347 348 345 343 345 345 344 345 348 347 344 344 343 342 342 339 339 340 343 342 343 349 348 339 338 338 336 336 338 343 345 343 343 337 332 329 328 326 324
346 346 346 345 346 348 348 348 346 346 347 339 331 325 323 323 325 329 339 343 344 345 346 346 345 345 345 345 344 343 343 343 343 345 343 343 342 342 340 339 339 340 340 341 342 343 343 344 346 347 347 348 347 348 349 348 348 349 348 346 345 344 344 339 341 343 343 346 345 341 339 345 338 336 342 345 346 347 348 339 332 329 327 325 324
348 348 348 347 346 347 347 347 347 346 348 337 333 328 322 320 324 332 336 338 340 343 344 345 345 346 346 345 344 343 343 343 347 342 348 346 341 340 339 339 339 339 339 344 335 338 345 344 345 346 347 349 343 350 351 350 349 349 351 350 346 344 344 343 344 344 345 344 348 344 340 343 343 340 343 344 339 342 344 343 335 330 327 325 324
346 348 349 349 350 349 349 348 346 346 348 342 332 327 324 320 323 332 334 337 338 339 341 343 344 345 345 345 344 344 343 342 342 331 331 342 341 340 340 339 339 338 338 340 334 329 329 329 329 331 332 332 332 330 329 330 342 347 345 342 344 345 341 338 339 339 341 342 343 349 345 341 345 342 341 342 336 340 342 344 339 326 323 322 321
343 346 349 350 349 350 350 349 350 349 349 347 334 325 323 320 327 334 335 335 336 338 339 341 342 343 345 355 356 346 343 343 336 329 328 335 336 336 336 336 336 336 337 339 341 342 329 324 324 325 326 327 328 328 329 328 328 336 343 341 343 341 338 337 336 338 340 339 342 349 337 341 344 339 339 335 330 331 333 337 333 325 322 318 318
343 346 351 350 351 352 353 353 356 354 352 349 334 326 318 317 325 334 335 334 334 334 336 337 339 340 341 348 353 352 350 345 331 328 327 334 336 336 336 335 335 335 337 338 339 340 341 342 345 343 341 338 338 337 340 333 332 343 340 341 342 340 338 338 338 337 337 339 342 349 342 340 340 342 340 333 330 333 329 330 327 321 320 322 322
Wind_Speed
3 2 2 2 2 3 3 3 3 3 2 2 0 0 1 2 3 3 3 3 3 3 2 0 2 2 3 2 2 2 2 2 2 3 3 3 2 4 7 7 7 6 6 5 5 5 5 5 5 5 6 6 6 6 5 6 5 6 6 6 7 7 7 8 9 9 10 10 11 11 11 11 11 10 10 10 10 10 10 9 10 9 9 9 9
3 2 3 2 2 2 2 3 2 3 2 1 1 0 0 1 1 2 2 3 3 3 3 3 1 3 3 3 3 4 3 3 3 4 3 2 3 3 8 8 8 7 6 6 6 6 6 6 6 6 6 6 7 6 6 7 7 7 7 7 8 8 9 9 10 10 11 11 11 11 11 12 12 11 11 10 11 11 11 11 11 10 10 10 10
2 2 2 2 2 1 1 1 2 2 2 2 1 0 1 1 1 1 2 2 3 2 2 2 2 3 3 4 4 4 4 3 2 2 3 3 3 3 5 9 8 8 7 7 7 7 7 7 7 7 7 8 8 8 8 8 9 8 9 9 9 10 10 10 11 11 11 11 11 12 12 12 12 12 12 11 11 11 11 12 12 11 11 11 10
2 2 2 1 0 0 1 0 1 3 1 1 2 1 1 1 1 0 1 1 3 3 2 2 0 2 3 3 3 4 4 3 3 3 3 3 3 4 4 4 8 8 8 8 8 8 8 8 8 8 8 8 8 9 9 9 10 10 10 10 10 11 11 11 11 11 12 11 12 12 13 13 13 12 12 12 12 12 12 12 12 12 12 11 11
2 1 1 1 0 0 0 1 1 2 1 0 1 1 2 2 2 2 3 2 3 3 2 1 1 1 1 2 3 3 3 3 4 3 4 4 4 4 4 4 3 7 9 9 9 9 9 9 9 9 9 9 10 10 10 11 11 11 12 12 12 12 12 12 12 12 12 12 13 13 13 13 13 13 13 13 12 12 12 12 12 12 13 12 12
2 1 1 1 1 1 0 1 2 1 1 0 1 2 2 2 2 3 3 3 4 3 3 3 2 1 1 1 2 3 3 4 4 4 3 4 4 3 4 4 4 3 4 9 10 10 10 10 10 10 11 11 11 11 11 12 12 12 13 13 13 13 14 13 13 13 13 13 13 13 13 13 13 13 13 13 13 13 13 13 13 13 13 13 13
2 2 2 2 1 0 0 1 2 1 2 1 1 1 2 2 2 3 3 3 3 2 2 2 1 1 3 2 4 3 3 4 4 3 3 3 3 4 4 4 4 4 4 3 6 10 11 11 11 11 11 11 12 12 12 12 13 13 13 14 14 14 15 14 13 13 13 13 13 13 13 13 13 13 13 13 13 13 14 14 14 13 14 14 14
3 2 2 2 2 0 1 1 1 1 1 1 1 0 1 2 1 1 3 4 3 3 2 3 2 1 2 3 4 3 4 4 4 4 3 2 4 3 4 4 4 4 5 4 4 5 10 11 11 11 11 12 12 12 13 13 13 14 14 14 14 14 14 14 14 14 14 14 14 13 13 13 13 14 14 14 14 13 13 14 13 14 14 14 14
4 4 3 3 1 0 1 1 1 1 1 1 1 1 0 1 1 1 1 1 3 3 4 4 2 1 1 3 4 5 5 5 5 4 2 4 4 4 4 5 4 6 4 4 4 4 6 10 11 11 12 12 12 12 13 13 14 14 14 14 14 15 14 14 14 14 13 14 14 14 14 14 14 14 14 15 15 13 13 14 14 14 14 14 14
5 4 4 2 1 1 0 1 2 2 2 2 1 1 1 1 2 1 1 1 3 3 4 4 4 2 0 2 3 4 5 5 5 3 5 5 5 5 5 4 4 5 4 4 4 4 4 6 9 10 11 11 11 12 12 13 13 14 14 14 14 14 14 12 12 12 13 13 13 13 13 14 14 14 14 15 15 14 13 13 13 13 12 12 12
3 3 3 2 2 1 1 1 2 3 3 2 2 1 1 2 2 3 2 2 2 2 2 3 4 3 2 2 1 2 4 4 3 4 5 6 5 6 4 5 4 4 5 4 4 4 5 5 4 4 5 9 10 12 12 12 13 13 13 13 14 13 13 13 12 11 12 12 13 13 13 14 14 15 15 14 14 12 12 12 12 11 12 11 11
3 3 3 2 3 2 2 2 2 3 2 1 0 1 0 1 2 2 4 4 2 2 2 3 2 2 2 3 3 2 1 3 4 5 5 5 6 4 5 4 4 5 5 5 4 4 4 5 5 5 4 6 9 10 12 13 13 13 13 13 13 13 13 13 12 11 11 11 12 11 10 11 13 13 13 13 12 11 11 10 11 11 11 10 10
3 4 4 3 3 2 3 2 2 2 2 1 0 0 0 0 0 1 2 4 2 1 1 2 2 2 2 3 4 2 3 1 4 4 5 6 5 5 5 4 5 5 5 4 4 4 4 5 5 4 5 5 6 9 11 12 12 12 12 13 14 14 13 12 12 10 10 10 10 9 9 9 10 11 11 11 10 11 11 9 9 9 8 9 9
3 3 3 4 4 3 2 2 2 3 2 1 0 1 1 2 1 2 2 1 2 2 3 1 3 1 1 4 3 5 3 3 4 4 4 4 4 5 5 5 6 6 4 3 4 4 5 5 4 4 5 5 5 5 6 6 7 10 11 12 14 14 13 12 11 10 9 10 9 7 7 7 8 10 10 10 9 10 9 8 8 8 7 8 8
3 3 4 3 4 4 3 2 2 1 2 1 1 1 1 2 2 1 4 2 1 3 1 1 0 1 1 1 2 4 4 4 3 4 5 4 3 4 4 5 7 5 3 3 5 5 5 4 4 4 5 5 5 5 5 6 7 11 11 11 11 12 12 12 11 10 9 8 6 6 7 7 8 9 10 8 8 9 9 8 8 8 9 8 8
3 3 3 3 3 3 3 2 2 2 3 2 1 0 1 2 2 1 1 3 3 3 1 2 2 1 2 0 1 1 4 3 3 6 2 4 4 5 4 5 5 4 2 5 5 5 5 4 5 5 5 5 5 5 5 5 8 10 11 11 10 9 9 8 8 7 7 7 6 6 6 7 8 8 9 9 9 8 8 8 7 7 7 7 7
3 3 3 3 3 3 3 2 2 2 2 2 1 1 1 0 1 1 1 0 3 2 2 1 1 2 2 1 2 2 2 4 3 5 3 2 3 4 4 5 5 4 4 5 4 4 5 4 5 4 5 5 5 4 4 5 5 5 6 8 7 7 5 4 4 6 6 6 6 6 6 6 7 8 8 8 8 7 7 7 6 5 5 6 7
3 3 3 3 3 2 2 2 2 2 2 1 1 0 1 1 1 2 1 2 2 1 3 2 1 2 2 2 3 2 3 2 1 3 6 2 4 3 3 4 3 4 4 4 5 5 3 5 4 6 5 5 4 4 4 4 4 4 4 4 6 5 3 2 3 5 5 5 6 6 7 6 7 8 7 8 7 6 7 6 6 7 7 6 7
3 3 3 3 2 2 2 2 1 1 1 1 0 1 2 1 0 1 2 1 1 1 2 3 3 0 0 2 2 2 2 0 2 0 4 4 1 2 2 2 3 4 5 5 4 4 5 4 5 6 5 4 4 3 3 4 5 5 5 4 3 3 3 2 3 3 4 5 5 5 6 7 6 6 6 6 6 6 7 7 7 7 8 7 7
4 3 3 3 3 2 2 1 1 1 1 2 2 2 1 2 1 2 1 1 2 2 1 1 1 2 1 2 2 1 0 1 1 0 1 1 5 5 1 3 1 3 4 5 4 5 5 4 5 5 6 5 3 3 3 3 3 2 2 3 3 3 2 1 1 1 2 4 4 4 5 6 6 5 4 5 6 7 8 8 8 8 8 7 7
3 4 4 4 3 3 3 2 2 2 2 2 2 2 3 2 2 0 1 1 2 2 1 0 0 2 3 3 3 1 1 1 1 1 1 2 2 1 4 4 1 3 3 3 4 4 4 5 5 5 5 5 2 2 3 3 2 2 3 5 3 1 1 0 1 1 2 3 4 5 5 5 5 5 5 5 6 7 8 9 9 9 8 7 7
3 3 4 4 4 4 4 4 3 3 2 3 2 3 2 3 2 2 1 2 2 2 1 1 1 0 1 1 3 3 4 2 2 5 1 1 1 4 2 3 3 4 3 3 4 3 3 3 4 5 5 5 3 2 3 3 2 2 4 6 5 0 1 1 0 1 1 3 4 4 4 4 4 4 5 5 6 7 8 9 9 8 8 8 7
4 3 4 4 4 4 4 4 4 3 3 3 3 3 3 3 2 1 2 2 1 0 1 1 1 2 2 2 1 2 1 0 3 2 0 2 2 3 3 2 3 4 3 3 3 4 2 3 4 5 4 4 3 2 2 2 2 4 6 7 6 1 1 2 1 1 0 2 4 5 4 4 4 4 5 6 7 8 8 8 8 9 8 8 8
3 4 4 4 3 3 3 3 4 3 4 3 3 3 2 2 1 1 2 1 1 0 1 3 3 3 2 2 0 1 1 1 2 2 2 3 1 3 2 3 2 4 4 5 1 2 2 3 3 3 3 3 4 1 2 2 3 7 6 7 7 3 1 2 2 2 2 1 3 3 3 4 4 4 5 6 7 7 8 8 8 9 9 9 8
5 5 5 5 4 4 4 4 4 4 3 3 3 3 2 2 2 1 1 2 1 1 0 1 1 2 2 1 0 1 3 2 1 2 1 2 3 1 0 1 0 4 2 3 2 5 2 2 3 3 3 3 3 1 3 3 3 6 7 5 7 4 3 3 3 3 3 2 2 3 3 3 3 3 4 5 6 7 7 8 8 9 9 8 8
6 6 6 5 4 5 5 5 4 4 3 3 3 3 2 2 3 3 3 3 1 1 1 0 0 0 0 2 3 2 4 1 1 1 1 0 1 0 2 1 0 2 2 4 3 2 2 2 1 0 1 1 2 2 3 3 3 6 7 5 5 6 5 4 4 3 4 3 4 4 4 4 4 4 4 4 6 7 7 7 7 8 8 8 8
6 6 5 5 5 5 5 5 4 4 3 3 3 3 3 2 3 3 3 3 2 1 1 1 2 2 2 1 2 3 4 3 1 3 1 0 1 1 1 4 5 3 3 2 3 1 2 4 2 1 2 3 2 3 2 3 5 6 6 4 3 6 7 6 4 4 4 4 4 5 5 5 5 5 4 4 5 7 7 6 6 7 7 7 8
5 4 5 6 6 6 5 6 5 5 4 4 4 3 3 3 2 3 4 2 3 2 2 1 2 2 2 0 1 3 3 4 2 1 0 1 1 2 4 4 3 5 4 4 4 1 1 2 2 2 2 1 3 2 3 5 6 7 6 3 4 4 7 7 5 5 5 6 5 6 6 6 6 5 5 5 5 6 7 6 5 6 6 7 7
5 4 5 5 5 6 6 6 5 5 5 4 4 3 3 3 3 2 3 2 2 3 2 2 3 1 1 1 1 2 3 3 2 2 1 0 1 2 0 1 4 2 2 3 2 1 2 1 2 2 2 1 2 4 4 4 5 4 3 3 4 4 6 7 6 6 6 7 6 6 7 7 7 6 6 5 4 5 6 5 4 5 5 6 6
5 4 4 5 5 5 5 5 5 4 5 4 4 4 3 4 3 3 3 2 2 0 2 2 3 2 1 1 1 2 2 3 3 2 2 0 0 1 1 1 3 0 3 0 3 3 2 2 1 1 2 3 3 3 2 4 5 3 3 4 4 4 6 7 7 7 8 8 8 7 8 8 8 7 6 5 4 4 5 4 4 4 5 5 5
5 4 4 5 5 5 5 5 4 5 4 4 4 4 3 3 3 4 3 2 2 2 2 1 2 1 3 3 2 3 2 3 3 2 2 1 1 1 1 1 1 3 4 3 0 3 3 2 3 2 1 3 3 3 3 3 4 3 3 3 3 5 6 6 8 9 9 9 9 8 9 9 9 8 7 6 5 4 4 4 3 3 4 4 4
5 4 4 5 5 5 5 5 5 4 4 4 4 4 4 4 3 3 3 2 3 3 3 2 2 2 1 3 3 3 2 1 3 3 2 1 0 1 1 1 0 1 4 3 2 5 3 4 4 4 3 2 4 3 3 3 3 5 3 3 4 5 4 5 7 10 10 10 10 10 10 10 10 9 9 8 7 5 4 4 1 1 3 3 3
4 4 5 5 5 6 5 5 5 5 5 5 4 4 4 4 4 3 3 3 3 3 3 4 2 2 3 3 3 3 1 2 3 3 3 1 0 1 1 1 1 1 1 0 2 5 4 2 2 4 4 3 3 0 2 3 4 4 3 3 3 4 4 5 5 8 10 11 11 11 10 10 10 10 10 9 8 7 5 4 2 0 2 2 2
5 6 6 5 5 6 6 6 6 6 5 5 5 4 5 4 4 3 4 3 3 4 3 4 4 3 3 3 4 4 2 3 3 3 3 1 1 2 2 1 1 2 3 2 3 2 5 2 3 3 4 1 3 1 3 4 5 4 4 4 3 3 5 5 5 6 9 11 12 12 11 11 11 11 11 10 9 9 8 6 4 2 1 2 2
4 5 6 6 6 6 6 6 6 6 6 6 5 5 5 5 6 5 4 4 5 4 4 5 5 3 3 4 5 4 2 3 3 3 2 3 1 1 3 2 3 3 3 4 2 3 4 5 3 2 3 2 4 4 4 5 4 4 4 5 4 4 3 4 5 5 8 11 12 12 12 11 11 11 12 11 10 9 9 8 6 3 2 2 3
6 5 5 6 5 6 7 6 6 6 6 6 5 5 6 6 6 6 5 5 5 5 5 5 5 4 5 4 5 4 3 3 4 3 3 3 3 3 3 3 3 4 3 3 4 4 3 3 3 3 3 2 4 5 5 4 5 5 3 5 3 4 5 4 5 6 7 10 11 12 12 12 12 12 12 11 10 9 10 9 7 5 4 4 4
6 5 5 4 5 5 7 7 7 6 7 6 6 6 5 5 6 6 6 6 6 6 6 6 6 5 5 5 6 4 3 4 4 3 4 4 4 3 4 4 4 4 3 3 4 4 3 5 5 3 2 2 4 4 3 4 4 3 3 3 4 5 5 4 4 5 7 8 9 11 11 12 12 12 12 11 9 10 11 10 9 7 6 6 6
7 6 7 6 6 7 7 7 7 7 7 7 7 7 7 6 6 6 6 6 6 6 6 6 6 5 5 6 5 5 4 5 6 4 4 4 4 4 4 5 5 4 4 4 3 3 4 6 5 5 2 4 4 4 3 2 4 5 6 5 4 3 3 5 4 4 3 3 3 4 6 9 11 12 12 10 10 11 11 11 10 8 8 8 8
8 8 8 8 7 7 8 7 8 8 7 7 7 7 6 6 7 7 7 6 6 6 6 7 6 6 6 6 6 6 6 6 6 6 5 5 5 5 6 6 4 4 5 5 4 4 4 4 4 5 5 4 3 6 3 1 2 3 4 6 7 3 0 2 6 4 2 4 4 6 6 6 6 7 9 11 11 12 12 11 11 11 9 10 9
9 9 9 9 9 8 8 8 9 8 7 7 7 7 7 7 7 7 7 7 7 6 6 6 6 6 7 7 7 7 7 7 7 6 5 6 5 5 6 4 4 4 5 5 4 5 5 4 5 7 4 4 4 4 3 3 4 3 3 4 6 7 7 2 3 6 4 2 5 4 4 4 6 8 9 10 11 12 12 11 12 12 12 11 10
8 9 9 9 9 8 8 8 8 7 7 8 7 7 8 7 7 7 7 8 8 7 7 7 6 7 6 7 7 7 7 10 11 10 9 8 6 7 7 4 5 5 5 5 6 5 6 5 7 5 4 6 6 6 7 5 6 8 2 2 4 5 4 6 7 4 6 6 4 3 4 4 4 6 5 6 8 8 10 12 10 12 14 12 12
8 8 8 8 8 8 8 8 7 6 7 7 9 13 11 8 8 8 7 8 8 8 8 8 7 7 8 7 8 12 13 13 13 14 14 13 12 9 8 6 6 6 6 6 6 6 5 6 7 6 6 7 8 6 5 6 5 3 4 3 4 7 4 5 6 5 2 2 2 5 6 3 5 6 5 7 7 4 6 5 8 9 10 13 13
5 6 7 8 9 9 9 9 9 8 8 8 14 14 15 15 10 7 8 8 7 8 8 8 9 8 7 7 7 9 10 10 11 14 14 15 14 15 15 13 10 7 6 7 7 6 5 6 6 5 6 8 9 7 6 7 5 5 6 4 5 4 4 4 7 7 2 5 3 2 6 2 4 6 6 7 7 5 6 8 11 12 13 12 13
5 3 5 6 7 7 8 9 9 9 9 12 15 14 15 16 14 10 8 8 8 7 8 8 8 8 7 7 6 6 6 8 7 7 10 13 15 15 15 15 15 15 13 9 8 6 5 6 7 7 5 7 9 6 7 4 7 5 6 5 5 6 6 5 4 5 4 3 4 2 8 2 2 5 7 8 7 6 8 11 12 12 12 13 13
8 3 3 3 3 4 5 6 8 8 8 12 15 15 15 15 16 13 8 8 8 8 8 8 8 8 7 6 7 6 7 11 9 7 7 8 12 14 15 15 14 14 14 15 14 11 7 6 7 8 8 7 7 8 6 5 3 5 5 5 5 5 6 6 7 5 6 4 3 4 7 6 5 4 7 9 6 6 7 10 14 13 13 13 13
6 5 2 2 2 2 3 4 4 4 5 7 11 14 15 16 16 12 9 9 8 8 8 8 8 8 8 8 8 8 7 6 6 7 7 8 8 7 7 7 8 10 13 14 15 16 13 9 8 9 10 6 9 9 9 4 4 7 7 8 5 5 6 8 7 6 5 5 6 3 5 6 4 5 7 9 5 6 7 10 13 13 13 14 14
3 6 7 3 1 1 2 2 3 3 3 3 5 9 12 14 14 11 8 8 8 9 9 8 8 9 8 8 7 9 8 7 7 8 8 8 7 7 6 7 8 8 7 7 8 8 8 8 10 11 12 10 9 10 10 6 7 9 8 8 6 5 5 2 3 5 7 5 4 2 7 8 3 3 7 8 5 6 7 8 12 13 13 14 14
4 4 6 4 2 2 2 2 3 4 4 7 6 7 9 11 11 6 6 7 8 9 9 9 8 8 8 8 8 8 9 9 11 14 12 8 6 7 8 9 9 8 8 10 13 10 9 9 9 10 10 11 12 11 10 7 6 6 5 2 1 3 5 5 7 5 6 3 6 6 5 8 4 5 7 6 3 6 7 6 9 12 13 13 13
4 5 5 4 2 2 2 1 2 3 3 6 8 9 9 7 2 4 4 5 6 8 9 9 7 6 6 6 7 8 8 9 13 14 13 9 6 8 9 9 9 8 9 9 10 14 16 16 16 16 15 15 16 16 15 14 10 5 2 3 7 6 6 7 7 5 8 5 3 6 5 8 7 5 7 5 3 6 7 8 6 7 10 11 12
5 4 4 3 2 1 2 3 2 3 3 5 8 9 9 8 5 4 4 4 6 6 7 7 6 6 7 10 10 7 8 9 13 13 13 7 7 8 9 10 10 10 10 9 6 7 12 13 14 16 16 16 16 17 16 16 16 8 6 9 10 5 7 6 8 7 6 3 6 5 3 8 6 3 5 4 2 5 7 8 5 4 5 7 9
4 4 4 4 3 3 3 3 6 5 3 5 7 7 8 7 3 3 2 2 3 5 5 6 5 6 7 7 11 11 9 11 14 14 14 10 8 9 9 9 10 11 12 9 7 8 7 5 6 6 7 10 11 9 11 16 16 10 8 10 8 6 8 8 8 6 6 7 6 8 6 6 5 6 4 2 3 6 4 5 4 3 3 3 4
Wind_Direction
85 65 54 48 29 27 27 25 9 352 349 12 67 17 16 28 26 13 14 358 337 324 318 256 197 192 195 169 156 157 168 175 191 209 219 220 238 259 219 226 230 235 237 242 243 240 243 252 257 260 262 266 273 277 281 288 289 285 289 282 282 287 293 297 303 303 304 305 307 308 309 308 309 308 305 300 299 298 297 295 293 290 292 290 288
81 46 71 52 31 20 28 12 359 324 341 317 318 147 30 47 36 31 11 344 337 315 346 329 231 197 189 186 180 173 179 184 198 213 227 220 239 254 234 224 231 239 241 246 252 257 255 256 261 265 269 273 274 277 283 281 279 282 282 285 289 295 295 298 301 302 302 304 305 305 304 305 306 306 303 299 297 297 295 292 292 291 291 291 290
94 77 74 51 35 27 0 345 346 319 295 288 322 216 126 108 95 49 352 337 304 293 322 304 254 193 193 186 186 166 173 191 200 215 224 232 240 248 265 237 233 238 244 251 256 261 266 268 268 269 270 272 276 277 278 273 275 279 283 290 293 294 295 297 302 302 303 302 301 301 302 304 305 304 302 300 298 295 294 294 294 293 291 289 286
98 81 80 60 27 5 305 17 308 304 290 307 342 43 99 91 83 62 292 296 316 343 332 303 286 182 182 184 163 172 179 190 203 208 221 229 239 257 259 271 246 242 248 254 258 263 266 268 272 272 273 275 275 278 278 280 285 287 286 288 292 293 295 297 296 294 295 296 299 302 303 302 302 302 301 297 297 296 295 293 292 292 291 288 286
123 136 126 149 153 20 321 310 294 300 295 332 39 37 49 28 12 7 346 6 353 344 3 3 25 116 184 188 163 185 180 195 214 209 217 220 235 243 257 267 278 263 256 255 261 262 264 268 271 272 274 276 278 278 282 285 286 285 287 288 288 292 294 295 296 299 303 304 302 302 301 301 301 301 299 298 295 294 292 290 288 291 291 290 289
153 144 147 181 172 153 256 300 311 318 343 84 67 45 47 34 359 11 351 9 0 335 348 4 2 105 143 179 178 197 185 204 216 222 222 225 227 243 255 267 270 268 278 267 263 263 266 267 268 270 272 276 278 279 280 281 281 283 285 288 289 291 292 293 295 296 296 298 300 300 300 300 299 298 296 294 293 292 292 292 291 290 288 286 284
173 172 213 191 167 153 272 267 307 16 32 65 110 69 66 49 10 1 338 359 345 323 8 357 9 207 187 176 196 194 202 218 219 226 221 236 220 241 250 258 262 264 265 270 270 268 266 267 269 271 272 273 276 278 279 279 281 282 283 284 285 286 288 290 291 293 296 297 296 298 297 296 294 293 292 291 290 288 288 287 287 287 285 284 283
193 191 207 217 183 179 247 288 292 56 43 48 98 87 43 49 46 70 4 333 349 336 6 348 329 235 214 183 191 196 210 222 225 225 224 220 239 243 246 251 253 256 257 252 258 263 267 267 267 269 271 273 274 276 277 278 280 281 282 283 284 285 287 287 288 289 290 293 294 294 293 293 292 292 292 293 292 291 289 289 289 287 286 284 284
201 196 201 205 218 257 279 220 194 103 71 59 79 89 87 7 336 44 108 304 334 328 354 355 323 304 239 208 195 193 208 221 225 222 210 215 240 242 242 246 246 251 248 254 256 263 269 269 269 268 269 271 273 274 274 277 278 279 281 282 283 285 286 287 286 287 287 288 291 292 293 294 296 296 296 295 295 293 290 292 293 294 296 297 294
193 190 193 193 187 186 222 172 123 96 80 70 77 92 79 62 342 339 67 355 332 0 339 346 329 352 352 229 212 200 217 223 221 218 208 230 234 237 237 244 249 248 249 246 252 256 262 271 275 277 273 269 269 270 271 272 274 275 277 278 280 282 284 284 284 284 286 286 287 290 292 293 295 295 295 295 296 297 298 300 303 305 304 304 302
178 170 180 181 133 133 155 105 104 103 83 73 70 78 73 55 40 328 337 259 255 304 307 317 324 320 292 253 159 209 250 224 220 221 218 228 231 238 234 240 239 247 247 246 247 251 261 266 270 273 278 279 276 275 274 273 273 272 272 273 275 276 279 280 281 282 283 285 287 289 288 292 295 298 299 300 302 304 304 306 311 313 312 313 314
151 157 148 131 136 134 100 77 95 105 95 84 47 42 40 355 341 352 341 336 333 307 350 339 338 11 351 340 332 328 177 216 216 218 226 231 236 239 241 244 230 245 245 247 245 251 257 266 265 264 271 279 280 277 277 276 274 272 271 273 273 274 275 277 280 282 283 284 285 287 287 289 297 302 303 304 305 306 308 314 319 319 321 324 325
141 142 138 132 122 119 109 91 101 94 103 114 84 38 191 170 20 4 17 13 330 353 40 78 52 345 359 359 323 311 296 188 208 234 235 232 228 231 244 253 249 245 247 244 249 253 255 258 261 267 268 273 282 281 278 278 277 273 272 272 272 273 274 276 280 282 285 287 293 295 293 292 297 303 303 306 311 315 319 321 321 331 337 333 337
137 130 126 136 137 127 126 117 92 93 103 140 147 36 14 29 35 19 25 45 311 327 336 45 13 91 21 328 336 315 281 261 265 247 227 230 223 225 236 240 249 247 247 238 253 255 256 255 257 263 264 263 270 276 281 283 285 285 284 284 283 280 279 282 287 291 293 301 307 307 307 303 301 305 311 317 320 326 334 339 349 350 357 20 21
142 137 135 144 146 143 151 126 99 109 102 81 67 41 21 13 63 67 344 354 273 279 275 95 169 156 130 55 328 7 330 346 299 267 247 235 219 238 241 244 252 249 238 236 251 257 259 258 261 260 263 263 266 270 278 282 282 288 288 285 282 283 286 290 294 301 309 317 330 330 317 308 310 317 322 328 336 345 359 6 11 29 37 24 14
150 146 139 146 152 157 153 145 132 127 138 139 98 51 357 7 54 93 104 344 355 312 189 173 126 108 330 43 269 110 341 314 317 291 264 242 223 237 230 248 263 273 229 244 252 256 261 264 263 259 261 264 267 272 278 281 288 295 294 291 292 291 290 292 304 323 331 338 341 328 316 311 321 326 332 342 347 8 13 24 26 35 31 25 6
157 149 146 151 151 153 162 167 149 144 141 133 147 203 232 159 105 119 140 210 314 321 317 100 123 145 140 24 353 10 238 256 335 289 352 313 261 247 241 246 261 261 242 255 266 262 268 271 264 264 262 265 267 272 277 285 295 286 296 303 305 310 323 331 355 359 352 346 338 328 322 326 332 336 343 349 360 20 24 30 22 23 27 17 3
162 156 146 146 162 169 170 170 180 165 155 159 168 27 294 305 181 179 194 198 231 328 303 321 179 204 171 196 166 207 274 279 56 305 323 255 302 285 256 262 270 274 266 268 267 269 256 267 272 271 267 262 268 273 273 278 273 284 286 290 318 338 19 44 32 20 358 346 339 335 333 335 337 341 351 352 6 24 21 25 22 19 11 16 8
175 164 163 164 160 170 181 189 193 182 197 140 201 229 242 222 192 152 213 203 131 286 255 266 348 353 232 275 246 232 182 66 286 309 351 319 338 327 303 260 241 258 265 254 256 267 267 252 269 270 270 261 262 264 265 268 278 279 267 280 340 345 11 52 69 32 359 342 340 338 335 334 336 342 347 358 9 21 19 16 13 11 11 15 9
173 173 171 172 164 183 188 195 201 229 227 206 221 233 223 261 238 219 186 180 163 186 246 294 100 277 309 355 353 10 36 290 156 243 223 342 327 322 302 328 279 239 248 263 259 248 266 264 259 264 265 268 251 254 261 271 268 280 303 309 312 338 341 65 80 64 351 337 340 342 338 334 335 346 356 6 9 16 16 10 7 11 13 18 10
186 178 177 173 179 184 185 194 208 233 234 237 241 222 219 240 275 273 200 126 164 188 141 265 123 352 356 357 6 15 347 55 101 130 91 27 289 309 301 316 311 269 245 252 257 251 248 256 255 257 269 275 258 251 261 250 251 292 297 289 281 307 340 204 80 60 345 331 339 341 341 339 344 351 358 6 7 10 9 5 5 13 17 17 13
203 190 182 184 184 180 181 193 206 215 226 233 248 253 247 226 225 211 175 158 210 176 256 278 182 156 96 112 26 337 27 6 7 6 5 105 182 303 282 306 319 293 318 290 278 261 252 265 269 263 266 272 284 261 243 246 242 276 272 272 265 93 67 267 209 128 326 322 332 340 344 341 343 350 355 1 5 5 3 4 6 15 19 17 16
195 202 197 192 190 186 184 197 201 208 223 215 225 231 238 230 233 164 170 194 181 185 1 79 129 89 91 88 98 97 98 51 302 325 242 289 358 313 313 226 227 304 299 321 285 260 242 241 248 262 261 283 293 279 244 244 244 249 261 269 261 206 147 259 255 212 236 316 328 338 339 339 343 349 353 359 0 359 360 4 10 16 22 18 18
199 197 210 202 193 197 197 195 207 207 218 208 221 222 239 252 269 177 207 215 161 156 335 4 16 31 50 93 49 188 187 191 235 239 209 226 182 255 275 304 327 230 282 310 285 301 275 257 263 283 306 286 277 257 233 238 253 256 259 263 254 232 181 249 240 241 239 264 297 320 339 342 350 352 351 353 351 348 355 3 12 18 23 21 18
204 200 211 200 193 195 205 205 215 214 217 209 233 229 226 242 243 217 219 251 216 173 334 318 72 44 324 354 140 243 278 217 210 256 242 189 181 295 287 110 288 308 305 21 347 310 235 261 282 262 248 267 267 249 239 239 248 259 252 260 248 243 224 234 241 242 244 247 276 281 299 308 314 322 336 339 339 341 350 2 13 21 23 25 18
193 204 202 195 194 201 204 211 210 213 210 206 212 224 207 203 213 214 220 228 190 207 230 236 108 152 149 21 347 323 298 257 234 91 106 155 358 353 313 331 76 292 302 357 322 21 326 344 315 243 225 262 323 286 263 260 266 266 252 247 262 257 250 241 235 234 239 249 268 275 278 282 285 299 313 326 334 338 349 5 16 24 24 26 20
194 202 192 190 195 197 207 208 211 212 213 214 207 205 208 194 202 215 225 210 214 208 262 322 336 334 349 45 315 310 292 303 312 11 157 187 195 169 115 9 344 6 351 325 342 45 262 289 298 339 24 12 330 314 313 297 267 263 249 240 258 266 264 254 245 232 234 233 254 265 269 267 269 279 298 315 325 330 340 5 19 27 29 29 23
205 189 199 188 191 197 203 210 210 209 209 211 208 202 195 188 204 199 226 208 220 241 250 248 276 272 275 290 28 321 291 291 322 324 252 205 159 145 115 109 72 344 339 355 352 328 273 353 316 37 11 341 292 267 256 247 250 249 241 229 238 257 261 259 251 235 232 229 237 252 255 260 257 264 276 291 310 322 331 356 19 30 37 32 28
200 198 198 203 196 196 204 210 207 208 206 210 206 202 181 176 185 191 217 234 194 227 251 252 258 256 264 269 260 272 291 290 317 316 345 161 165 183 194 136 155 84 347 347 288 271 306 356 54 313 342 323 284 278 272 264 265 261 244 239 240 247 255 255 252 239 232 230 229 238 246 248 251 256 264 280 298 307 320 340 15 30 43 37 31
200 201 194 205 210 209 207 215 210 202 206 203 198 199 182 183 189 198 212 173 179 236 245 226 260 244 254 306 23 323 301 331 300 290 330 103 149 194 279 144 134 161 173 193 277 217 263 306 217 306 313 317 300 300 248 288 284 266 255 254 257 256 264 264 255 245 235 231 228 230 236 240 245 250 259 271 276 283 302 320 360 25 44 40 32
205 211 199 207 211 220 214 220 213 210 208 206 197 196 188 197 195 206 207 179 192 245 257 226 258 246 281 308 326 320 332 333 316 320 351 17 123 154 100 137 188 136 154 136 309 284 186 264 285 243 264 291 307 311 337 333 327 306 261 250 255 274 281 271 258 250 241 233 228 227 232 236 240 245 250 258 260 257 270 296 336 15 53 47 37
211 212 210 211 210 214 218 221 219 215 208 211 197 197 192 202 204 214 221 183 202 229 262 249 247 243 260 300 298 289 303 311 289 304 319 341 93 81 131 119 163 183 137 142 178 262 242 224 269 288 252 267 310 345 326 332 331 321 282 259 245 253 256 257 254 244 242 236 233 230 230 233 235 240 244 250 258 252 261 269 269 12 73 62 51
207 212 218 223 218 213 213 214 216 214 210 210 203 194 195 205 211 211 226 206 214 236 235 267 259 240 239 247 271 274 252 260 249 256 282 272 48 100 140 137 143 163 111 141 231 280 299 252 246 274 303 336 319 199 326 309 312 306 294 267 262 258 259 255 255 246 238 237 236 234 231 230 232 236 240 243 252 256 255 266 259 31 93 103 84
203 213 214 221 221 219 214 213 214 215 213 210 204 192 201 209 216 202 214 215 221 239 228 245 255 243 229 236 261 270 258 248 263 250 227 242 274 312 293 191 225 227 186 159 213 219 280 308 304 292 289 228 255 260 235 279 289 294 300 299 281 248 256 256 257 260 240 236 236 237 235 233 233 236 240 241 244 257 263 264 264 258 171 136 137
217 215 214 211 212 214 216 213 211 213 212 213 208 200 207 209 212 214 210 207 214 226 229 237 242 240 243 237 250 253 252 248 257 253 243 250 236 224 262 245 251 254 197 185 172 240 267 278 241 273 262 268 212 263 249 240 259 272 287 290 287 289 261 255 259 263 249 238 237 237 237 237 235 238 241 241 241 248 258 263 261 241 229 207 193
222 226 221 214 207 208 214 216 213 214 214 216 213 209 211 210 215 219 216 212 215 220 225 236 240 236 238 246 249 242 240 237 256 259 254 247 246 246 249 267 235 252 236 181 200 202 227 260 283 235 263 247 274 260 264 267 267 279 249 280 294 283 285 275 254 262 260 245 240 237 237 238 239 240 241 243 241 244 253 259 258 244 225 219 213
225 223 227 218 215 212 215 216 217 219 219 216 217 219 219 216 218 222 221 219 220 221 222 226 228 225 232 233 246 241 224 237 255 249 250 246 245 228 238 250 242 246 252 220 217 197 213 247 272 267 251 262 249 266 257 274 299 296 298 289 294 300 298 275 263 258 268 259 244 243 240 242 245 244 244 245 242 245 250 253 254 246 230 225 219
225 219 218 217 211 216 220 220 216 217 216 214 216 219 217 217 220 225 226 223 225 226 227 226 226 222 226 232 239 238 241 238 251 251 246 246 247 239 241 245 240 241 248 255 223 211 213 240 240 292 294 262 299 275 259 215 266 302 314 303 302 293 292 315 290 266 251 238 247 247 249 250 250 251 253 253 247 247 250 252 253 248 236 231 224
222 222 222 220 221 218 220 216 219 217 215 214 215 218 220 219 220 223 227 226 227 230 232 231 227 224 226 230 230 226 230 233 241 246 246 251 246 251 246 248 245 230 247 252 246 237 233 256 271 244 270 279 244 279 290 200 237 227 268 313 312 299 322 259 299 299 260 261 241 235 241 239 244 246 249 251 251 252 253 253 253 251 243 234 229
223 224 222 220 223 219 221 218 221 217 216 219 220 219 220 220 222 229 229 229 230 231 233 233 230 228 228 229 229 226 223 226 226 235 226 241 243 255 253 243 247 236 247 252 251 244 249 248 247 269 254 272 296 266 301 348 322 306 203 226 265 291 305 292 241 288 299 275 280 266 244 246 256 255 260 260 252 248 251 256 253 251 245 236 230
224 225 224 223 224 223 224 221 222 217 216 221 219 216 217 221 218 227 229 231 231 233 235 234 231 230 233 232 233 232 228 230 225 225 224 219 224 239 255 233 243 237 250 254 248 250 251 243 270 259 269 284 271 279 295 287 261 259 256 165 252 262 277 308 297 266 242 260 274 282 267 211 240 251 255 272 256 244 249 244 254 246 243 236 231
221 221 220 221 221 222 224 226 223 217 220 222 224 221 216 215 214 221 224 228 228 230 232 236 237 229 230 229 233 232 231 233 233 233 234 234 231 225 238 234 235 237 241 251 257 248 249 260 257 267 278 270 271 262 258 258 263 292 297 231 252 278 309 286 279 268 260 197 265 287 268 210 208 261 247 254 265 230 248 230 238 236 238 231 230
221 217 216 214 216 218 219 220 218 216 221 225 225 219 219 222 219 217 220 228 226 229 231 231 239 237 234 231 234 241 239 237 237 234 235 237 239 240 243 242 230 218 235 243 250 243 239 241 254 256 246 264 271 265 256 268 269 252 255 254 245 270 274 290 294 305 253 170 220 246 287 247 183 237 251 245 260 246 238 243 243 238 237 231 226
260 244 208 211 215 218 219 220 220 219 220 225 224 222 220 222 221 222 221 225 226 226 232 234 239 242 242 239 236 236 235 235 237 243 241 240 240 243 245 247 249 243 233 226 240 252 228 238 249 246 243 248 262 266 266 251 261 261 252 246 246 246 262 260 247 252 254 170 181 228 270 258 185 238 266 256 247 239 239 243 246 240 235 230 225
295 280 274 272 249 239 225 224 228 224 226 226 222 221 222 222 222 222 233 228 228 230 229 232 237 241 242 242 247 238 242 241 239 240 242 252 251 247 249 253 257 252 247 243 237 234 238 229 234 250 234 241 251 256 235 230 208 247 255 242 238 232 230 246 251 259 269 189 175 233 259 257 170 219 243 259 244 245 253 245 244 241 236 228 223
302 302 277 270 279 267 255 244 245 254 254 255 230 224 223 223 224 213 228 232 233 235 234 233 234 237 237 237 242 249 243 239 237 237 238 243 250 256 257 253 251 256 252 242 239 240 238 236 233 240 249 213 237 247 251 209 212 246 252 258 253 250 246 240 244 243 254 150 202 224 273 264 194 215 248 265 241 245 246 249 243 239 235 229 222
309 310 302 293 279 271 285 284 287 277 253 261 259 244 241 239 237 219 232 234 239 240 236 233 233 235 238 236 238 247 255 246 238 230 234 240 242 249 254 254 249 249 247 247 238 230 227 222 230 237 249 249 242 248 256 236 221 240 240 249 242 238 250 285 314 257 270 223 202 174 253 271 144 196 246 261 263 250 253 256 242 238 234 228 221
320 307 284 282 282 300 286 288 298 303 307 321 305 275 254 245 241 230 232 237 243 248 247 241 236 234 234 233 235 244 250 254 253 243 237 238 236 244 252 256 260 257 253 247 245 240 230 224 221 228 236 241 243 246 249 247 235 240 252 236 244 252 267 279 270 282 273 246 184 198 249 266 231 191 260 257 244 262 261 252 251 233 231 226 220
294 275 274 274 292 302 308 310 280 282 293 289 287 281 272 270 236 221 226 232 241 246 251 252 248 245 242 235 234 243 252 255 259 257 253 244 251 250 252 258 260 264 264 263 246 239 238 236 236 238 242 247 252 255 259 258 247 246 191 228 253 242 255 270 271 274 267 269 227 205 239 267 256 223 266 267 227 254 267 263 246 227 225 222 217
267 268 275 298 327 323 317 315 287 283 280 267 261 265 264 256 222 227 219 225 242 247 259 264 262 258 252 249 244 242 250 258 263 266 264 248 243 248 253 259 265 266 266 263 266 256 242 240 243 245 248 254 257 260 262 261 256 234 204 239 248 240 249 234 259 253 275 286 251 164 202 243 269 226 243 286 320 241 246 255 252 237 215 224 222
286 301 341 3 4 8 353 344 340 357 345 357 3 331 315 323 315 307 296 242 262 259 259 265 264 261 263 262 257 253 252 256 256 257 258 248 245 248 250 254 262 264 262 267 264 268 272 267 259 247 256 249 249 248 252 251 253 238 213 232 247 228 246 248 248 271 287 265 238 167 211 262 242 250 203 306 286 274 247 255 265 241 217 204 206